Time,TemperatureF,DewpointF,PressureIn,WindDirection,WindDirectionDegrees,WindSpeedMPH,WindSpeedGustMPH,Humidity,HourlyPrecipIn,Conditions,Clouds,dailyrainin,SoftwareType,DateUTC
2013-03-19 00:00:00,20.3,14.8,29.95,NNW,329,8.1,14.1,79,0.00,,OVC100,0.00,VWS V14.01,2013-03-19 06:00:00,
2013-03-19 00:05:00,19.9,14.8,29.95,NW,316,5.8,11.0,80,0.00,,FEW120,0.00,VWS V14.01,2013-03-19 06:05:00,
2013-03-19 00:10:00,19.6,14.4,29.95,NNW,341,5.4,11.0,80,0.00,,FEW120,0.00,VWS V14.01,2013-03-19 06:10:00,
2013-03-19 00:15:00,19.6,15.0,29.95,NNW,332,6.3,11.0,82,0.00,,FEW120,0.00,VWS V14.01,2013-03-19 06:15:00,
2013-03-19 00:20:00,19.6,14.4,29.95,NW,307,6.3,11.0,80,0.00,,FEW120,0.00,VWS V14.01,2013-03-19 06:20:00,
2013-03-19 00:25:00,20.1,14.4,29.95,WNW,289,5.8,11.0,78,0.00,,FEW120,0.00,VWS V14.01,2013-03-19 06:25:00,
2013-03-19 00:30:00,20.8,12.6,29.95,WNW,293,5.8,11.0,70,0.00,,FEW120,0.00,VWS V14.01,2013-03-19 06:30:00,
2013-03-19 00:35:00,21.6,10.6,29.95,WNW,294,7.6,7.6,62,0.00,,FEW120,0.00,VWS V14.01,2013-03-19 06:35:00,
2013-03-19 00:40:00,21.0,9.7,29.95,WSW,243,4.0,7.6,61,0.00,,FEW120,0.00,VWS V14.01,2013-03-19 06:40:00,
2013-03-19 00:45:00,20.3,10.8,29.95,WNW,283,5.4,7.6,66,0.00,,FEW120,0.00,VWS V14.01,2013-03-19 06:45:00,
2013-03-19 00:50:00,20.3,11.8,29.95,WNW,302,6.3,7.6,69,0.00,,FEW120,0.00,VWS V14.01,2013-03-19 06:50:00,
2013-03-19 00:55:00,20.8,9.9,29.95,West,275,3.6,8.7,62,0.00,,FEW120,0.00,VWS V14.01,2013-03-19 06:55:00,
2013-03-19 01:00:00,19.9,8.3,29.95,WSW,244,5.8,8.7,60,0.00,,FEW120,0.00,VWS V14.01,2013-03-19 07:00:00,
2013-03-19 01:05:00,19.0,8.2,29.95,SW,233,2.7,4.5,62,0.00,,FEW120,0.00,VWS V14.01,2013-03-19 07:05:00,
2013-03-19 01:10:00,18.3,8.2,29.95,SW,221,3.6,4.5,64,0.00,,SCT120,0.00,VWS V14.01,2013-03-19 07:10:00,
2013-03-19 01:15:00,17.8,8.4,29.95,WSW,237,3.6,4.9,66,0.00,,SCT120,0.00,VWS V14.01,2013-03-19 07:15:00,
2013-03-19 01:20:00,17.4,8.0,29.95,WSW,258,0.0,4.9,66,0.00,,SCT120,0.00,VWS V14.01,2013-03-19 07:20:00,
2013-03-19 01:25:00,17.4,8.7,29.95,WSW,258,0.0,4.9,68,0.00,,SCT120,0.00,VWS V14.01,2013-03-19 07:25:00,
2013-03-19 01:30:00,18.1,8.7,29.95,West,276,0.0,4.9,66,0.00,,SCT120,0.00,VWS V14.01,2013-03-19 07:30:00,
2013-03-19 01:35:00,18.7,9.9,29.95,NW,311,0.0,2.7,68,0.00,,SCT120,0.00,VWS V14.01,2013-03-19 07:35:00,
2013-03-19 01:40:00,19.2,10.1,29.95,WSW,257,3.6,4.0,67,0.00,,SCT120,0.00,VWS V14.01,2013-03-19 07:40:00,
2013-03-19 01:45:00,19.0,9.9,29.95,WSW,247,2.7,4.0,67,0.00,,SCT120,0.00,VWS V14.01,2013-03-19 07:45:00,
2013-03-19 01:50:00,19.0,10.2,29.98,WSW,247,0.0,4.0,68,0.00,,SCT120,0.00,VWS V14.01,2013-03-19 07:50:00,
2013-03-19 01:55:00,19.6,11.7,29.98,WSW,250,2.2,4.0,71,0.00,,SCT120,0.00,VWS V14.01,2013-03-19 07:55:00,
2013-03-19 02:00:00,20.1,11.6,29.98,West,267,2.2,4.0,69,0.00,,SCT120,0.00,VWS V14.01,2013-03-19 08:00:00,
2013-03-19 02:05:00,20.5,11.9,29.98,NNW,337,3.1,5.4,69,0.00,,CLR,0.00,VWS V14.01,2013-03-19 08:05:00,
2013-03-19 02:10:00,21.0,14.7,29.98,NNW,331,3.6,5.4,76,0.00,,CLR,0.00,VWS V14.01,2013-03-19 08:10:00,
2013-03-19 02:15:00,21.0,16.1,29.98,NNW,341,4.0,5.4,81,0.00,,CLR,0.00,VWS V14.01,2013-03-19 08:15:00,
2013-03-19 02:20:00,20.8,16.5,29.98,NNW,339,3.1,5.4,83,0.00,,CLR,0.00,VWS V14.01,2013-03-19 08:20:00,
2013-03-19 02:25:00,20.8,17.0,29.98,NW,320,3.1,5.4,85,0.00,,CLR,0.00,VWS V14.01,2013-03-19 08:25:00,
2013-03-19 02:30:00,20.8,17.3,29.98,NW,325,4.0,5.4,86,0.00,,CLR,0.00,VWS V14.01,2013-03-19 08:30:00,
2013-03-19 02:35:00,20.8,17.6,29.98,NNW,331,3.6,4.9,87,0.00,,CLR,0.00,VWS V14.01,2013-03-19 08:35:00,
2013-03-19 02:40:00,21.0,17.8,29.98,WSW,250,6.3,6.3,87,0.00,,CLR,0.00,VWS V14.01,2013-03-19 08:40:00,
2013-03-19 02:45:00,20.8,17.6,29.98,WSW,245,6.3,7.6,87,0.00,,CLR,0.00,VWS V14.01,2013-03-19 08:45:00,
2013-03-19 02:50:00,20.7,17.4,30.01,SSW,209,8.7,10.1,87,0.00,,CLR,0.00,VWS V14.01,2013-03-19 08:50:00,
2013-03-19 02:55:00,20.3,16.8,30.01,SW,229,10.5,13.2,86,0.00,,CLR,0.00,VWS V14.01,2013-03-19 08:55:00,
2013-03-19 03:00:00,20.7,17.1,30.01,West,274,10.5,13.6,86,0.00,,CLR,0.00,VWS V14.01,2013-03-19 09:00:00,
2013-03-19 03:05:00,20.3,16.5,30.01,WSW,247,10.5,12.8,85,0.00,,FEW120,0.00,VWS V14.01,2013-03-19 09:05:00,
2013-03-19 03:10:00,20.5,15.9,30.01,WSW,249,14.5,17.4,82,0.00,,FEW120,0.00,VWS V14.01,2013-03-19 09:10:00,
2013-03-19 03:15:00,21.4,12.8,30.01,West,265,10.5,17.4,69,0.00,,FEW120,0.00,VWS V14.01,2013-03-19 09:15:00,
2013-03-19 03:20:00,23.0,5.8,29.98,WSW,255,15.4,22.4,47,0.00,,FEW120,0.00,VWS V14.01,2013-03-19 09:20:00,
2013-03-19 03:25:00,23.5,5.8,29.98,WNW,283,12.3,25.1,46,0.00,,FEW120,0.00,VWS V14.01,2013-03-19 09:25:00,
2013-03-19 03:30:00,23.7,5.5,29.98,West,280,11.4,25.1,45,0.00,,FEW120,0.00,VWS V14.01,2013-03-19 09:30:00,
2013-03-19 03:35:00,23.9,5.7,30.01,WNW,288,14.1,15.9,45,0.00,,FEW120,0.00,VWS V14.01,2013-03-19 09:35:00,
2013-03-19 03:40:00,23.4,5.7,30.01,NW,319,6.3,15.9,46,0.00,,FEW120,0.00,VWS V14.01,2013-03-19 09:40:00,
2013-03-19 03:45:00,23.4,5.7,30.01,NNW,342,8.1,15.9,46,0.00,,FEW120,0.00,VWS V14.01,2013-03-19 09:45:00,
2013-03-19 03:50:00,23.0,6.7,30.01,WNW,300,8.7,15.9,49,0.00,,FEW120,0.00,VWS V14.01,2013-03-19 09:50:00,
2013-03-19 03:55:00,23.0,6.7,30.01,NW,315,6.3,15.9,49,0.00,,FEW120,0.00,VWS V14.01,2013-03-19 09:55:00,
2013-03-19 04:00:00,23.2,6.4,30.01,NNW,330,6.3,15.9,48,0.00,,FEW120,0.00,VWS V14.01,2013-03-19 10:00:00,
2013-03-19 04:05:00,23.2,6.4,30.01,NW,314,11.0,17.4,48,0.00,,BKN090,0.00,VWS V14.01,2013-03-19 10:05:00,
2013-03-19 04:10:00,22.8,7.4,30.01,NNW,335,8.3,17.4,51,0.00,,BKN090,0.00,VWS V14.01,2013-03-19 10:10:00,
2013-03-19 04:15:00,21.9,7.8,30.01,NNW,340,8.7,17.4,54,0.00,,BKN090,0.00,VWS V14.01,2013-03-19 10:15:00,
2013-03-19 04:20:00,21.7,8.1,30.01,NW,325,8.7,17.4,55,0.00,,BKN090,0.00,VWS V14.01,2013-03-19 10:20:00,
2013-03-19 04:25:00,21.6,7.1,30.01,NW,321,8.7,17.4,53,0.00,,BKN090,0.00,VWS V14.01,2013-03-19 10:25:00,
2013-03-19 04:30:00,21.2,7.6,30.01,NW,316,11.0,17.4,55,0.00,,BKN090,0.00,VWS V14.01,2013-03-19 10:30:00,
2013-03-19 04:35:00,21.0,7.0,30.01,NW,307,9.2,10.5,54,0.00,,BKN090,0.00,VWS V14.01,2013-03-19 10:35:00,
2013-03-19 04:40:00,22.1,5.0,30.01,WNW,294,11.4,16.3,47,0.00,,BKN090,0.00,VWS V14.01,2013-03-19 10:40:00,
2013-03-19 04:45:00,22.6,5.0,30.01,NW,311,10.1,16.3,46,0.00,,BKN090,0.00,VWS V14.01,2013-03-19 10:45:00,
2013-03-19 04:50:00,22.6,5.0,30.01,WNW,299,12.8,16.3,46,0.00,,BKN090,0.00,VWS V14.01,2013-03-19 10:50:00,
2013-03-19 04:55:00,22.8,5.2,30.01,WNW,303,8.7,16.3,46,0.00,,BKN090,0.00,VWS V14.01,2013-03-19 10:55:00,
2013-03-19 05:00:00,22.5,4.3,30.01,WNW,284,11.0,16.3,45,0.00,,BKN090,0.00,VWS V14.01,2013-03-19 11:00:00,
2013-03-19 05:05:00,22.3,4.7,30.01,WSW,257,8.3,15.4,46,0.00,,OVC080,0.00,VWS V14.01,2013-03-19 11:05:00,
2013-03-19 05:10:00,22.6,4.5,30.01,WNW,297,8.3,15.4,45,0.00,,OVC080,0.00,VWS V14.01,2013-03-19 11:10:00,
2013-03-19 05:15:00,23.0,4.3,30.01,WNW,295,13.2,15.4,44,0.00,,OVC080,0.00,VWS V14.01,2013-03-19 11:15:00,
2013-03-19 05:20:00,23.7,4.5,30.04,WNW,293,11.0,20.1,43,0.00,,OVC080,0.00,VWS V14.01,2013-03-19 11:20:00,
2013-03-19 05:25:00,23.5,4.3,30.04,WNW,286,13.2,20.1,43,0.00,,OVC080,0.00,VWS V14.01,2013-03-19 11:25:00,
2013-03-19 05:30:00,23.4,4.2,30.04,NW,304,8.7,21.5,43,0.00,,OVC080,0.00,VWS V14.01,2013-03-19 11:30:00,
2013-03-19 05:35:00,23.0,4.3,30.04,NW,312,10.5,15.4,44,0.00,,OVC080,0.00,VWS V14.01,2013-03-19 11:35:00,
2013-03-19 05:40:00,23.4,4.2,30.04,NW,304,8.7,15.4,43,0.00,,OVC080,0.00,VWS V14.01,2013-03-19 11:40:00,
2013-03-19 05:45:00,22.8,4.2,30.04,West,276,8.7,15.4,44,0.00,,OVC080,0.00,VWS V14.01,2013-03-19 11:45:00,
2013-03-19 05:50:00,22.5,3.9,30.04,WNW,291,8.3,15.4,44,0.00,,OVC080,0.00,VWS V14.01,2013-03-19 11:50:00,
2013-03-19 05:55:00,22.5,3.4,30.04,NW,309,12.8,16.8,43,0.00,,OVC080,0.00,VWS V14.01,2013-03-19 11:55:00,
2013-03-19 06:00:00,22.8,3.7,30.04,West,280,11.9,16.8,43,0.00,,OVC080,0.00,VWS V14.01,2013-03-19 12:00:00,
2013-03-19 06:05:00,21.7,2.7,30.04,West,265,10.1,11.4,43,0.00,,SCT110,0.00,VWS V14.01,2013-03-19 12:05:00,
2013-03-19 06:10:00,22.5,3.4,30.04,West,274,7.6,15.4,43,0.00,,SCT110,0.00,VWS V14.01,2013-03-19 12:10:00,
2013-03-19 06:15:00,21.7,3.2,30.04,West,272,8.7,15.4,44,0.00,,SCT110,0.00,VWS V14.01,2013-03-19 12:15:00,
2013-03-19 06:20:00,21.7,3.2,30.04,WNW,288,8.7,15.4,44,0.00,,SCT110,0.00,VWS V14.01,2013-03-19 12:20:00,
2013-03-19 06:25:00,21.6,2.5,30.04,West,270,8.7,15.4,43,0.00,,SCT110,0.00,VWS V14.01,2013-03-19 12:25:00,
2013-03-19 06:30:00,21.9,2.9,30.04,West,272,8.3,15.4,43,0.00,,SCT110,0.00,VWS V14.01,2013-03-19 12:30:00,
2013-03-19 06:35:00,22.1,3.0,30.07,WNW,288,6.7,10.5,43,0.00,,SCT110,0.00,VWS V14.01,2013-03-19 12:35:00,
2013-03-19 06:40:00,21.6,2.5,30.07,West,267,5.4,10.5,43,0.00,,SCT110,0.00,VWS V14.01,2013-03-19 12:40:00,
2013-03-19 06:45:00,20.3,1.4,30.07,West,277,5.8,10.5,43,0.00,,SCT110,0.00,VWS V14.01,2013-03-19 12:45:00,
2013-03-19 06:50:00,21.4,2.4,30.07,WNW,299,8.7,11.0,43,0.00,,SCT110,0.00,VWS V14.01,2013-03-19 12:50:00,
2013-03-19 06:55:00,22.1,3.0,30.07,WNW,299,9.2,12.3,43,0.00,,SCT110,0.00,VWS V14.01,2013-03-19 12:55:00,
2013-03-19 07:00:00,22.8,3.7,30.07,NW,305,8.3,12.3,43,0.00,,SCT110,0.00,VWS V14.01,2013-03-19 13:00:00,
2013-03-19 07:05:00,21.9,2.9,30.07,NW,305,11.0,12.8,43,0.00,,SCT090,0.00,VWS V14.01,2013-03-19 13:05:00,
2013-03-19 07:10:00,22.1,3.0,30.07,WNW,292,6.3,12.8,43,0.00,,SCT090,0.00,VWS V14.01,2013-03-19 13:10:00,
2013-03-19 07:15:00,21.6,3.0,30.07,WNW,295,5.4,12.8,44,0.00,,SCT090,0.00,VWS V14.01,2013-03-19 13:15:00,
2013-03-19 07:20:00,20.1,2.7,30.07,West,267,8.1,12.8,46,0.00,,SCT090,0.00,VWS V14.01,2013-03-19 13:20:00,
2013-03-19 07:25:00,18.7,4.4,30.07,West,266,10.1,12.8,53,0.00,,SCT090,0.00,VWS V14.01,2013-03-19 13:25:00,
2013-03-19 07:30:00,20.5,4.4,30.07,West,271,8.1,12.8,49,0.00,,SCT090,0.00,VWS V14.01,2013-03-19 13:30:00,
2013-03-19 07:35:00,20.5,5.2,30.07,West,262,5.8,8.3,51,0.00,,SCT090,0.00,VWS V14.01,2013-03-19 13:35:00,
2013-03-19 07:40:00,20.5,4.8,30.07,WSW,251,5.8,8.7,50,0.00,,SCT090,0.00,VWS V14.01,2013-03-19 13:40:00,
2013-03-19 07:45:00,19.6,5.2,30.07,WSW,241,5.8,8.7,53,0.00,,SCT090,0.00,VWS V14.01,2013-03-19 13:45:00,
2013-03-19 07:50:00,19.0,5.1,30.10,WSW,237,5.4,8.7,54,0.00,,SCT090,0.00,VWS V14.01,2013-03-19 13:50:00,
2013-03-19 07:55:00,19.0,5.5,30.10,West,272,4.0,8.7,55,0.00,,SCT090,0.00,VWS V14.01,2013-03-19 13:55:00,
2013-03-19 08:00:00,19.6,5.7,30.10,WSW,245,4.0,8.7,54,0.00,,SCT090,0.00,VWS V14.01,2013-03-19 14:00:00,
2013-03-19 08:05:00,21.6,6.7,30.10,WSW,243,4.5,6.3,52,0.00,,CLR,0.00,VWS V14.01,2013-03-19 14:05:00,
2013-03-19 08:10:00,23.0,7.1,30.10,WSW,241,4.0,6.3,50,0.00,,CLR,0.00,VWS V14.01,2013-03-19 14:10:00,
2013-03-19 08:15:00,23.4,6.1,30.10,West,266,3.1,6.3,47,0.00,,CLR,0.00,VWS V14.01,2013-03-19 14:15:00,
2013-03-19 08:20:00,23.2,4.5,30.10,NW,317,6.7,7.6,44,0.00,,CLR,0.00,VWS V14.01,2013-03-19 14:20:00,
2013-03-19 08:25:00,25.0,5.1,30.10,WNW,295,5.4,7.6,42,0.00,,CLR,0.00,VWS V14.01,2013-03-19 14:25:00,
2013-03-19 08:30:00,24.4,4.7,30.10,NNW,333,8.7,10.5,42,0.00,,CLR,0.00,VWS V14.01,2013-03-19 14:30:00,
2013-03-19 08:35:00,24.3,4.5,30.10,NNW,328,8.3,12.8,42,0.00,,CLR,0.00,VWS V14.01,2013-03-19 14:35:00,
2013-03-19 08:40:00,23.9,4.2,30.10,NW,309,8.7,14.1,42,0.00,,CLR,0.00,VWS V14.01,2013-03-19 14:40:00,
2013-03-19 08:45:00,24.6,4.8,30.10,WNW,299,11.0,14.1,42,0.00,,CLR,0.00,VWS V14.01,2013-03-19 14:45:00,
2013-03-19 08:50:00,25.3,4.9,30.10,WNW,298,6.3,14.1,41,0.00,,CLR,0.00,VWS V14.01,2013-03-19 14:50:00,
2013-03-19 08:55:00,26.4,5.9,30.10,NNW,331,6.3,14.1,41,0.00,,CLR,0.00,VWS V14.01,2013-03-19 14:55:00,
2013-03-19 09:00:00,25.9,5.4,30.10,NNW,337,7.2,14.1,41,0.00,,CLR,0.00,VWS V14.01,2013-03-19 15:00:00,
2013-03-19 09:05:00,25.9,4.9,30.10,NNW,335,7.2,12.8,40,0.00,,CLR,0.00,VWS V14.01,2013-03-19 15:05:00,
2013-03-19 09:10:00,25.9,5.4,30.10,NW,315,8.3,13.2,41,0.00,,CLR,0.00,VWS V14.01,2013-03-19 15:10:00,
2013-03-19 09:15:00,25.3,4.4,30.10,NW,325,7.6,13.2,40,0.00,,CLR,0.00,VWS V14.01,2013-03-19 15:15:00,
2013-03-19 09:20:00,25.9,4.3,30.10,NNW,338,11.0,13.2,39,0.00,,CLR,0.00,VWS V14.01,2013-03-19 15:20:00,
2013-03-19 09:25:00,25.5,4.0,30.10,NW,315,10.5,15.4,39,0.00,,CLR,0.00,VWS V14.01,2013-03-19 15:25:00,
2013-03-19 09:30:00,26.1,5.6,30.10,NW,326,10.5,15.4,41,0.00,,CLR,0.00,VWS V14.01,2013-03-19 15:30:00,
2013-03-19 09:35:00,25.2,4.8,30.13,North,353,5.4,8.7,41,0.00,,CLR,0.00,VWS V14.01,2013-03-19 15:35:00,
2013-03-19 09:40:00,26.6,6.1,30.13,NNW,332,7.6,10.5,41,0.00,,CLR,0.00,VWS V14.01,2013-03-19 15:40:00,
2013-03-19 09:45:00,26.8,6.2,30.13,North,3,8.7,10.5,41,0.00,,CLR,0.00,VWS V14.01,2013-03-19 15:45:00,
2013-03-19 09:50:00,26.4,5.9,30.13,NNW,335,12.8,13.2,41,0.00,,CLR,0.00,VWS V14.01,2013-03-19 15:50:00,
2013-03-19 09:55:00,27.5,6.4,30.13,North,0,9.6,13.2,40,0.00,,CLR,0.00,VWS V14.01,2013-03-19 15:55:00,
2013-03-19 10:00:00,27.3,6.2,30.13,North,353,6.3,16.3,40,0.00,,CLR,0.00,VWS V14.01,2013-03-19 16:00:00,
2013-03-19 10:05:00,27.9,6.7,30.13,North,353,7.6,11.0,40,0.00,,SCT065,0.00,VWS V14.01,2013-03-19 16:05:00,
2013-03-19 10:10:00,28.0,6.3,30.13,NW,320,12.8,14.5,39,0.00,,SCT065,0.00,VWS V14.01,2013-03-19 16:10:00,
2013-03-19 10:15:00,26.1,6.1,30.13,NW,325,8.3,17.4,42,0.00,,SCT065,0.00,VWS V14.01,2013-03-19 16:15:00,
2013-03-19 10:20:00,25.3,6.0,30.13,North,0,10.5,17.4,43,0.00,,SCT065,0.00,VWS V14.01,2013-03-19 16:20:00,
2013-03-19 10:25:00,26.2,6.8,30.13,NNW,342,5.8,17.4,43,0.00,,SCT065,0.00,VWS V14.01,2013-03-19 16:25:00,
2013-03-19 10:30:00,26.6,7.1,30.13,North,1,9.2,17.4,43,0.00,,SCT065,0.00,VWS V14.01,2013-03-19 16:30:00,
2013-03-19 10:35:00,27.0,8.0,30.13,North,349,8.3,11.4,44,0.00,,SCT065,0.00,VWS V14.01,2013-03-19 16:35:00,
2013-03-19 10:40:00,27.0,7.5,30.13,North,353,9.6,13.2,43,0.00,,SCT065,0.00,VWS V14.01,2013-03-19 16:40:00,
2013-03-19 10:45:00,26.1,7.2,30.13,NNW,344,7.6,13.2,44,0.00,,SCT065,0.00,VWS V14.01,2013-03-19 16:45:00,
2013-03-19 10:50:00,27.1,7.6,30.13,NNW,345,5.4,13.2,43,0.00,,SCT065,0.00,VWS V14.01,2013-03-19 16:50:00,
2013-03-19 10:55:00,27.7,7.6,30.13,NW,314,6.3,13.2,42,0.00,,SCT065,0.00,VWS V14.01,2013-03-19 16:55:00,
2013-03-19 11:00:00,28.8,8.0,30.13,NW,318,12.8,13.2,41,0.00,,SCT065,0.00,VWS V14.01,2013-03-19 17:00:00,
2013-03-19 11:05:00,28.6,7.9,30.13,North,357,7.6,10.1,41,0.00,,OVC080,0.00,VWS V14.01,2013-03-19 17:05:00,
2013-03-19 11:10:00,28.9,7.7,30.13,WNW,299,8.3,11.0,40,0.00,,OVC080,0.00,VWS V14.01,2013-03-19 17:10:00,
2013-03-19 11:15:00,28.4,5.5,30.13,NNW,337,8.7,13.6,37,0.00,,OVC080,0.00,VWS V14.01,2013-03-19 17:15:00,
2013-03-19 11:20:00,27.9,5.6,30.13,North,350,8.3,17.9,38,0.00,,OVC080,0.00,VWS V14.01,2013-03-19 17:20:00,
2013-03-19 11:25:00,28.6,5.0,30.13,NNW,337,8.7,17.9,36,0.00,,OVC080,0.00,VWS V14.01,2013-03-19 17:25:00,
2013-03-19 11:30:00,28.2,4.1,30.13,NW,311,11.0,17.9,35,0.00,,OVC080,0.00,VWS V14.01,2013-03-19 17:30:00,
2013-03-19 11:35:00,28.2,4.1,30.16,NW,318,12.8,17.0,35,0.00,,OVC080,0.00,VWS V14.01,2013-03-19 17:35:00,
2013-03-19 11:40:00,28.2,4.7,30.16,NNW,330,12.8,18.3,36,0.00,,OVC080,0.00,VWS V14.01,2013-03-19 17:40:00,
2013-03-19 11:45:00,27.7,3.0,30.16,North,353,11.0,19.7,34,0.00,,OVC080,0.00,VWS V14.01,2013-03-19 17:45:00,
2013-03-19 11:50:00,27.5,2.8,30.16,NNW,343,12.8,19.7,34,0.00,,OVC080,0.00,VWS V14.01,2013-03-19 17:50:00,
2013-03-19 11:55:00,27.9,3.8,30.16,North,349,8.1,19.7,35,0.00,,OVC080,0.00,VWS V14.01,2013-03-19 17:55:00,
2013-03-19 12:00:00,27.9,3.2,30.16,NNW,335,10.5,19.7,34,0.00,,OVC080,0.00,VWS V14.01,2013-03-19 18:00:00,
2013-03-19 12:05:00,28.6,4.4,30.16,NNW,336,11.0,18.8,35,0.00,,OVC085,0.00,VWS V14.01,2013-03-19 18:05:00,
2013-03-19 12:10:00,28.6,3.1,30.16,NNW,328,12.3,18.8,33,0.00,,OVC085,0.00,VWS V14.01,2013-03-19 18:10:00,
2013-03-19 12:15:00,28.6,3.1,30.16,North,353,13.6,18.8,33,0.00,,OVC085,0.00,VWS V14.01,2013-03-19 18:15:00,
2013-03-19 12:20:00,28.8,3.3,30.16,NW,326,15.4,19.7,33,0.00,,OVC085,0.00,VWS V14.01,2013-03-19 18:20:00,
2013-03-19 12:25:00,29.1,3.6,30.16,North,349,10.1,19.7,33,0.00,,OVC085,0.00,VWS V14.01,2013-03-19 18:25:00,
2013-03-19 12:30:00,28.9,4.1,30.16,NW,313,11.0,19.7,34,0.00,,OVC085,0.00,VWS V14.01,2013-03-19 18:30:00,
2013-03-19 12:35:00,28.2,3.5,30.16,North,11,10.5,17.9,34,0.00,,OVC085,0.00,VWS V14.01,2013-03-19 18:35:00,
2013-03-19 12:40:00,28.6,3.1,30.16,NW,305,12.8,17.9,33,0.00,,OVC085,0.00,VWS V14.01,2013-03-19 18:40:00,
2013-03-19 12:45:00,28.4,3.0,30.16,NNW,329,15.4,18.8,33,0.00,,OVC085,0.00,VWS V14.01,2013-03-19 18:45:00,
2013-03-19 12:50:00,28.4,3.6,30.16,NNW,331,8.7,18.8,34,0.00,,OVC085,0.00,VWS V14.01,2013-03-19 18:50:00,
2013-03-19 12:55:00,28.2,2.8,30.16,North,357,19.7,19.7,33,0.00,,OVC085,0.00,VWS V14.01,2013-03-19 18:55:00,
2013-03-19 13:00:00,27.9,2.5,30.16,NNE,12,12.3,19.7,33,0.00,,OVC085,0.00,VWS V14.01,2013-03-19 19:00:00,
2013-03-19 13:05:00,28.2,4.1,30.16,NNW,334,18.3,18.3,35,0.00,,CLR,0.00,VWS V14.01,2013-03-19 19:05:00,
2013-03-19 13:10:00,28.6,3.1,30.16,NW,318,19.7,19.7,33,0.00,,CLR,0.00,VWS V14.01,2013-03-19 19:10:00,
2013-03-19 13:15:00,28.6,3.1,30.16,NW,324,5.8,19.7,33,0.00,,CLR,0.00,VWS V14.01,2013-03-19 19:15:00,
2013-03-19 13:20:00,28.6,3.8,30.16,NNW,330,13.6,19.7,34,0.00,,CLR,0.00,VWS V14.01,2013-03-19 19:20:00,
2013-03-19 13:25:00,29.1,3.6,30.16,NNW,339,10.1,19.7,33,0.00,,CLR,0.00,VWS V14.01,2013-03-19 19:25:00,
2013-03-19 13:30:00,29.5,3.9,30.16,NNW,341,11.0,19.7,33,0.00,,CLR,0.00,VWS V14.01,2013-03-19 19:30:00,
2013-03-19 13:35:00,29.1,3.6,30.16,NNW,345,15.0,18.3,33,0.00,,CLR,0.00,VWS V14.01,2013-03-19 19:35:00,
2013-03-19 13:40:00,29.3,3.8,30.16,NNW,335,10.5,18.3,33,0.00,,CLR,0.00,VWS V14.01,2013-03-19 19:40:00,
2013-03-19 13:45:00,29.5,3.9,30.16,North,353,12.8,18.3,33,0.00,,CLR,0.00,VWS V14.01,2013-03-19 19:45:00,
2013-03-19 13:50:00,30.2,4.6,30.16,NNW,346,15.4,18.3,33,0.00,,CLR,0.00,VWS V14.01,2013-03-19 19:50:00,
2013-03-19 13:55:00,30.4,4.7,30.16,North,353,8.7,18.3,33,0.00,,CLR,0.00,VWS V14.01,2013-03-19 19:55:00,
2013-03-19 14:00:00,30.2,3.9,30.16,NNW,333,11.0,18.3,32,0.00,,CLR,0.00,VWS V14.01,2013-03-19 20:00:00,
2013-03-19 14:05:00,30.9,5.2,30.16,NW,321,8.7,13.2,33,0.00,,CLR,0.00,VWS V14.01,2013-03-19 20:05:00,
2013-03-19 14:10:00,30.6,4.2,30.16,WNW,300,17.9,17.9,32,0.00,,CLR,0.00,VWS V14.01,2013-03-19 20:10:00,
2013-03-19 14:15:00,30.2,3.9,30.16,North,353,6.3,17.9,32,0.00,,CLR,0.00,VWS V14.01,2013-03-19 20:15:00,
2013-03-19 14:20:00,30.0,3.8,30.16,NNW,334,10.5,17.9,32,0.00,,CLR,0.00,VWS V14.01,2013-03-19 20:20:00,
2013-03-19 14:25:00,30.9,4.5,30.16,North,349,8.7,17.9,32,0.00,,CLR,0.00,VWS V14.01,2013-03-19 20:25:00,
2013-03-19 14:30:00,30.9,4.5,30.16,North,8,13.2,17.9,32,0.00,,CLR,0.00,VWS V14.01,2013-03-19 20:30:00,
2013-03-19 14:35:00,30.7,4.4,30.16,NNE,20,10.5,13.2,32,0.00,,CLR,0.00,VWS V14.01,2013-03-19 20:35:00,
2013-03-19 14:40:00,30.7,3.7,30.16,North,353,11.0,15.0,31,0.00,,CLR,0.00,VWS V14.01,2013-03-19 20:40:00,
2013-03-19 14:45:00,31.3,4.9,30.16,NNW,334,9.2,19.7,32,0.00,,CLR,0.00,VWS V14.01,2013-03-19 20:45:00,
2013-03-19 14:50:00,30.6,3.5,30.16,North,357,10.5,19.7,31,0.00,,CLR,0.00,VWS V14.01,2013-03-19 20:50:00,
2013-03-19 14:55:00,31.1,4.0,30.16,NW,319,15.4,19.7,31,0.00,,CLR,0.00,VWS V14.01,2013-03-19 20:55:00,
2013-03-19 15:00:00,31.5,4.3,30.16,NNW,327,8.3,19.7,31,0.00,,CLR,0.00,VWS V14.01,2013-03-19 21:00:00,
2013-03-19 15:05:00,31.6,4.5,30.16,North,357,11.4,17.0,31,0.00,,CLR,0.00,VWS V14.01,2013-03-19 21:05:00,
2013-03-19 15:10:00,31.6,5.2,30.16,NW,320,13.2,17.0,32,0.00,,CLR,0.00,VWS V14.01,2013-03-19 21:10:00,
2013-03-19 15:15:00,32.5,5.3,30.16,NNW,333,11.4,17.4,31,0.00,,CLR,0.00,VWS V14.01,2013-03-19 21:15:00,
2013-03-19 15:20:00,32.2,5.7,30.16,NNW,332,12.3,17.4,32,0.00,,CLR,0.00,VWS V14.01,2013-03-19 21:20:00,
2013-03-19 15:25:00,32.2,5.0,30.16,North,0,10.1,17.4,31,0.00,,CLR,0.00,VWS V14.01,2013-03-19 21:25:00,
2013-03-19 15:30:00,32.0,6.2,30.16,NNW,344,8.3,17.4,33,0.00,,CLR,0.00,VWS V14.01,2013-03-19 21:30:00,
2013-03-19 15:35:00,33.3,5.9,30.16,North,4,14.5,15.0,31,0.00,,CLR,0.00,VWS V14.01,2013-03-19 21:35:00,
2013-03-19 15:40:00,33.1,5.8,30.16,NNW,333,8.1,17.0,31,0.00,,CLR,0.00,VWS V14.01,2013-03-19 21:40:00,
2013-03-19 15:45:00,33.8,6.4,30.16,NNE,21,9.2,17.0,31,0.00,,CLR,0.00,VWS V14.01,2013-03-19 21:45:00,
2013-03-19 15:50:00,33.6,6.2,30.16,North,10,6.7,17.0,31,0.00,,CLR,0.00,VWS V14.01,2013-03-19 21:50:00,
2013-03-19 15:55:00,32.7,6.8,30.16,North,9,11.4,17.0,33,0.00,,CLR,0.00,VWS V14.01,2013-03-19 21:55:00,
2013-03-19 16:00:00,32.7,7.5,30.16,North,6,9.2,17.0,34,0.00,,CLR,0.00,VWS V14.01,2013-03-19 22:00:00,
2013-03-19 16:05:00,33.1,7.8,30.16,North,350,5.8,10.5,34,0.00,,CLR,0.00,VWS V14.01,2013-03-19 22:05:00,
2013-03-19 16:10:00,33.4,7.4,30.16,North,353,11.0,11.0,33,0.00,,CLR,0.00,VWS V14.01,2013-03-19 22:10:00,
2013-03-19 16:15:00,32.9,7.0,30.16,NNW,344,5.4,11.0,33,0.00,,CLR,0.00,VWS V14.01,2013-03-19 22:15:00,
2013-03-19 16:20:00,33.1,7.1,30.16,North,8,8.1,11.0,33,0.00,,CLR,0.00,VWS V14.01,2013-03-19 22:20:00,
2013-03-19 16:25:00,35.1,8.9,30.16,North,4,5.4,11.0,33,0.00,,CLR,0.00,VWS V14.01,2013-03-19 22:25:00,
2013-03-19 16:30:00,33.8,7.8,30.16,North,0,7.2,11.0,33,0.00,,CLR,0.00,VWS V14.01,2013-03-19 22:30:00,
2013-03-19 16:35:00,34.0,7.9,30.19,North,0,7.6,8.7,33,0.00,,CLR,0.00,VWS V14.01,2013-03-19 22:35:00,
2013-03-19 16:40:00,36.1,9.1,30.19,North,10,7.2,10.1,32,0.00,,CLR,0.00,VWS V14.01,2013-03-19 22:40:00,
2013-03-19 16:45:00,36.9,9.8,30.19,North,3,5.4,10.1,32,0.00,,CLR,0.00,VWS V14.01,2013-03-19 22:45:00,
2013-03-19 16:50:00,38.7,11.4,30.19,NNE,24,7.6,10.1,32,0.00,,CLR,0.00,VWS V14.01,2013-03-19 22:50:00,
2013-03-19 16:55:00,36.7,10.3,30.19,NE,54,8.3,10.1,33,0.00,,CLR,0.00,VWS V14.01,2013-03-19 22:55:00,
2013-03-19 17:00:00,36.3,9.3,30.19,ENE,78,5.4,10.1,32,0.00,,CLR,0.00,VWS V14.01,2013-03-19 23:00:00,
2013-03-19 17:05:00,33.6,9.5,30.19,ENE,67,6.3,6.3,36,0.00,,CLR,0.00,VWS V14.01,2013-03-19 23:05:00,
2013-03-19 17:10:00,34.3,10.2,30.19,East,89,4.0,7.6,36,0.00,,CLR,0.00,VWS V14.01,2013-03-19 23:10:00,
2013-03-19 17:15:00,33.8,9.1,30.19,ESE,111,3.6,7.6,35,0.00,,CLR,0.00,VWS V14.01,2013-03-19 23:15:00,
2013-03-19 17:20:00,33.3,9.2,30.19,SE,137,4.9,7.6,36,0.00,,CLR,0.00,VWS V14.01,2013-03-19 23:20:00,
2013-03-19 17:25:00,33.6,10.1,30.19,East,101,4.0,7.6,37,0.00,,CLR,0.00,VWS V14.01,2013-03-19 23:25:00,
2013-03-19 17:30:00,33.3,9.8,30.19,NNE,20,4.9,7.6,37,0.00,,CLR,0.00,VWS V14.01,2013-03-19 23:30:00,
2013-03-19 17:35:00,35.4,11.1,30.19,NE,37,4.5,5.8,36,0.00,,CLR,0.00,VWS V14.01,2013-03-19 23:35:00,
2013-03-19 17:40:00,37.0,11.9,30.19,ENE,72,2.7,5.8,35,0.00,,CLR,0.00,VWS V14.01,2013-03-19 23:40:00,
2013-03-19 17:45:00,38.1,12.2,30.19,NNE,17,3.1,5.8,34,0.00,,CLR,0.00,VWS V14.01,2013-03-19 23:45:00,
2013-03-19 17:50:00,39.2,12.5,30.19,NNE,17,3.6,5.8,33,0.00,,CLR,0.00,VWS V14.01,2013-03-19 23:50:00,
2013-03-19 17:55:00,36.9,10.5,30.19,NNE,17,0.0,5.8,33,0.00,,CLR,0.00,VWS V14.01,2013-03-19 23:55:00,
2013-03-19 18:00:00,35.2,9.7,30.19,East,101,2.7,5.8,34,0.00,,CLR,0.00,VWS V14.01,2013-03-20 00:00:00,
2013-03-19 18:05:00,35.1,9.5,30.19,ESE,102,2.2,3.6,34,0.00,,CLR,0.00,VWS V14.01,2013-03-20 00:05:00,
2013-03-19 18:10:00,31.8,7.3,30.19,ESE,111,4.0,5.4,35,0.00,,CLR,0.00,VWS V14.01,2013-03-20 00:10:00,
2013-03-19 18:15:00,30.2,8.2,30.19,East,101,6.7,7.6,39,0.00,,CLR,0.00,VWS V14.01,2013-03-20 00:15:00,
2013-03-19 18:20:00,29.5,8.7,30.19,ESE,118,5.4,7.6,41,0.00,,CLR,0.00,VWS V14.01,2013-03-20 00:20:00,
2013-03-19 18:25:00,29.7,8.9,30.19,East,99,3.6,7.6,41,0.00,,CLR,0.00,VWS V14.01,2013-03-20 00:25:00,
2013-03-19 18:30:00,30.0,9.2,30.19,ESE,105,2.7,7.6,41,0.00,,CLR,0.00,VWS V14.01,2013-03-20 00:30:00,
2013-03-19 18:35:00,30.2,9.4,30.19,ESE,123,2.7,4.0,41,0.00,,CLR,0.00,VWS V14.01,2013-03-20 00:35:00,
2013-03-19 18:40:00,28.2,8.1,30.19,SE,124,3.1,6.3,42,0.00,,CLR,0.00,VWS V14.01,2013-03-20 00:40:00,
2013-03-19 18:45:00,27.0,8.0,30.19,ESE,110,3.6,6.3,44,0.00,,CLR,0.00,VWS V14.01,2013-03-20 00:45:00,
2013-03-19 18:50:00,26.2,8.8,30.19,ESE,119,2.2,6.3,47,0.00,,CLR,0.00,VWS V14.01,2013-03-20 00:50:00,
2013-03-19 18:55:00,25.0,8.5,30.19,ESE,119,2.2,6.3,49,0.00,,CLR,0.00,VWS V14.01,2013-03-20 00:55:00,
2013-03-19 19:00:00,24.3,9.2,30.19,SE,138,2.7,6.3,52,0.00,,CLR,0.00,VWS V14.01,2013-03-20 01:00:00,
2013-03-19 19:05:00,23.2,8.2,30.19,South,181,3.6,4.0,52,0.00,,CLR,0.00,VWS V14.01,2013-03-20 01:05:00,
2013-03-19 19:10:00,22.3,7.8,30.19,SSW,211,2.7,4.0,53,0.00,,CLR,0.00,VWS V14.01,2013-03-20 01:10:00,
2013-03-19 19:15:00,21.7,8.5,30.19,SSW,194,3.1,4.0,56,0.00,,CLR,0.00,VWS V14.01,2013-03-20 01:15:00,
2013-03-19 19:20:00,22.3,9.8,30.19,SSE,166,2.7,4.0,58,0.00,,CLR,0.00,VWS V14.01,2013-03-20 01:20:00,
2013-03-19 19:25:00,22.6,9.7,30.19,South,169,4.0,4.9,57,0.00,,CLR,0.00,VWS V14.01,2013-03-20 01:25:00,
2013-03-19 19:30:00,22.3,9.0,30.19,South,183,4.9,5.4,56,0.00,,CLR,0.00,VWS V14.01,2013-03-20 01:30:00,
2013-03-19 19:35:00,22.8,9.5,30.19,South,170,4.0,4.5,56,0.00,,CLR,0.00,VWS V14.01,2013-03-20 01:35:00,
2013-03-19 19:40:00,22.5,8.8,30.19,SSW,213,3.6,5.4,55,0.00,,CLR,0.00,VWS V14.01,2013-03-20 01:40:00,
2013-03-19 19:45:00,19.9,7.2,30.19,SW,227,4.5,5.4,57,0.00,,CLR,0.00,VWS V14.01,2013-03-20 01:45:00,
2013-03-19 19:50:00,19.4,7.8,30.19,SSW,210,4.0,5.8,60,0.00,,CLR,0.00,VWS V14.01,2013-03-20 01:50:00,
2013-03-19 19:55:00,19.6,8.7,30.19,SSW,195,4.0,5.8,62,0.00,,CLR,0.00,VWS V14.01,2013-03-20 01:55:00,
2013-03-19 20:00:00,19.6,9.1,30.19,South,190,4.9,5.8,63,0.00,,CLR,0.00,VWS V14.01,2013-03-20 02:00:00,
2013-03-19 20:05:00,21.4,10.0,30.19,SSW,194,5.4,5.4,61,0.00,,CLR,0.00,VWS V14.01,2013-03-20 02:05:00,
2013-03-19 20:10:00,21.7,9.2,30.19,South,191,5.4,5.8,58,0.00,,CLR,0.00,VWS V14.01,2013-03-20 02:10:00,
2013-03-19 20:15:00,20.7,8.2,30.19,SSW,195,5.8,6.3,58,0.00,,CLR,0.00,VWS V14.01,2013-03-20 02:15:00,
2013-03-19 20:20:00,19.9,7.6,30.16,WSW,237,8.1,8.1,58,0.00,,CLR,0.00,VWS V14.01,2013-03-20 02:20:00,
2013-03-19 20:25:00,19.8,7.4,30.16,WSW,241,5.4,8.7,58,0.00,,CLR,0.00,VWS V14.01,2013-03-20 02:25:00,
2013-03-19 20:30:00,19.4,7.8,30.16,SW,218,4.0,8.7,60,0.00,,CLR,0.00,VWS V14.01,2013-03-20 02:30:00,
2013-03-19 20:35:00,19.4,7.4,30.16,SSW,212,4.9,5.8,59,0.00,,CLR,0.00,VWS V14.01,2013-03-20 02:35:00,
2013-03-19 20:40:00,19.8,6.6,30.16,SW,220,5.4,5.8,56,0.00,,CLR,0.00,VWS V14.01,2013-03-20 02:40:00,
2013-03-19 20:45:00,19.6,6.1,30.16,WSW,237,5.4,6.3,55,0.00,,CLR,0.00,VWS V14.01,2013-03-20 02:45:00,
2013-03-19 20:50:00,20.1,5.7,30.16,SSW,207,3.6,6.3,53,0.00,,CLR,0.00,VWS V14.01,2013-03-20 02:50:00,
2013-03-19 20:55:00,20.5,6.1,30.16,SSE,157,4.9,6.3,53,0.00,,CLR,0.00,VWS V14.01,2013-03-20 02:55:00,
2013-03-19 21:00:00,21.6,6.7,30.16,South,174,5.4,7.6,52,0.00,,CLR,0.00,VWS V14.01,2013-03-20 03:00:00,
2013-03-19 21:05:00,21.4,5.2,30.16,South,190,6.3,6.3,49,0.00,,CLR,0.00,VWS V14.01,2013-03-20 03:05:00,
2013-03-19 21:10:00,20.3,4.2,30.16,SSW,204,7.6,7.6,49,0.00,,CLR,0.00,VWS V14.01,2013-03-20 03:10:00,
2013-03-19 21:15:00,20.1,4.0,30.16,South,189,6.3,7.6,49,0.00,,CLR,0.00,VWS V14.01,2013-03-20 03:15:00,
2013-03-19 21:20:00,19.2,3.6,30.16,SW,227,4.0,7.6,50,0.00,,CLR,0.00,VWS V14.01,2013-03-20 03:20:00,
2013-03-19 21:25:00,18.9,3.7,30.16,SSW,200,2.7,7.6,51,0.00,,CLR,0.00,VWS V14.01,2013-03-20 03:25:00,
2013-03-19 21:30:00,19.8,3.7,30.16,SSW,202,5.4,7.6,49,0.00,,CLR,0.00,VWS V14.01,2013-03-20 03:30:00,
2013-03-19 21:35:00,20.3,3.8,30.16,SE,146,5.4,5.8,48,0.00,,CLR,0.00,VWS V14.01,2013-03-20 03:35:00,
2013-03-19 21:40:00,20.7,3.2,30.16,SSW,194,7.6,8.1,46,0.00,,CLR,0.00,VWS V14.01,2013-03-20 03:40:00,
2013-03-19 21:45:00,21.2,4.1,30.16,SSW,194,6.3,8.7,47,0.00,,CLR,0.00,VWS V14.01,2013-03-20 03:45:00,
2013-03-19 21:50:00,19.8,3.7,30.16,SSW,209,5.4,8.7,49,0.00,,CLR,0.00,VWS V14.01,2013-03-20 03:50:00,
2013-03-19 21:55:00,17.6,3.0,30.16,WSW,237,4.9,8.7,52,0.00,,CLR,0.00,VWS V14.01,2013-03-20 03:55:00,
2013-03-19 22:00:00,16.5,2.8,30.16,WSW,244,2.7,8.7,54,0.00,,CLR,0.00,VWS V14.01,2013-03-20 04:00:00,
2013-03-19 22:05:00,18.1,0.9,30.16,SSW,206,2.2,4.0,46,0.00,,CLR,0.00,VWS V14.01,2013-03-20 04:05:00,
2013-03-19 22:10:00,19.0,4.7,30.16,South,185,4.9,4.9,53,0.00,,CLR,0.00,VWS V14.01,2013-03-20 04:10:00,
2013-03-19 22:15:00,18.7,4.8,30.16,SSE,153,3.6,4.9,54,0.00,,CLR,0.00,VWS V14.01,2013-03-20 04:15:00,
2013-03-19 22:20:00,16.9,3.1,30.16,SW,219,3.6,5.4,54,0.00,,CLR,0.00,VWS V14.01,2013-03-20 04:20:00,
2013-03-19 22:25:00,18.3,4.5,30.16,ESE,120,2.2,5.4,54,0.00,,CLR,0.00,VWS V14.01,2013-03-20 04:25:00,
2013-03-19 22:30:00,17.8,3.6,30.16,SSW,192,4.9,5.4,53,0.00,,CLR,0.00,VWS V14.01,2013-03-20 04:30:00,
2013-03-19 22:35:00,17.1,3.7,30.16,SSW,207,4.0,4.9,55,0.00,,CLR,0.00,VWS V14.01,2013-03-20 04:35:00,
2013-03-19 22:40:00,17.8,4.8,30.16,SSW,207,4.9,5.4,56,0.00,,CLR,0.00,VWS V14.01,2013-03-20 04:40:00,
2013-03-19 22:45:00,16.9,3.5,30.16,SSW,211,3.6,5.8,55,0.00,,CLR,0.00,VWS V14.01,2013-03-20 04:45:00,
2013-03-19 22:50:00,17.8,5.1,30.16,SSE,167,3.6,5.8,57,0.00,,CLR,0.00,VWS V14.01,2013-03-20 04:50:00,
2013-03-19 22:55:00,16.7,3.7,30.16,SW,223,5.4,6.3,56,0.00,,CLR,0.00,VWS V14.01,2013-03-20 04:55:00,
2013-03-19 23:00:00,16.9,3.9,30.16,South,180,3.1,6.3,56,0.00,,CLR,0.00,VWS V14.01,2013-03-20 05:00:00,
2013-03-19 23:05:00,16.5,3.6,30.16,SSW,211,5.4,5.8,56,0.00,,CLR,0.00,VWS V14.01,2013-03-20 05:05:00,
2013-03-19 23:10:00,17.4,5.2,30.16,South,191,3.1,6.3,58,0.00,,CLR,0.00,VWS V14.01,2013-03-20 05:10:00,
2013-03-19 23:15:00,17.4,5.2,30.16,South,189,0.0,6.3,58,0.00,,CLR,0.00,VWS V14.01,2013-03-20 05:15:00,
2013-03-19 23:20:00,16.3,3.8,30.16,WSW,245,4.0,6.3,57,0.00,,CLR,0.00,VWS V14.01,2013-03-20 05:20:00,
2013-03-19 23:25:00,15.8,4.4,30.16,SSW,196,2.7,6.3,60,0.00,,CLR,0.00,VWS V14.01,2013-03-20 05:25:00,
2013-03-19 23:30:00,17.2,6.1,30.16,SSE,160,2.7,6.3,61,0.00,,CLR,0.00,VWS V14.01,2013-03-20 05:30:00,
2013-03-19 23:35:00,16.3,3.4,30.16,SW,223,4.0,4.9,56,0.00,,CLR,0.00,VWS V14.01,2013-03-20 05:35:00,
2013-03-19 23:40:00,15.3,2.0,30.16,SSW,204,3.6,4.9,55,0.00,,CLR,0.00,VWS V14.01,2013-03-20 05:40:00,
2013-03-19 23:45:00,15.4,2.2,30.16,SW,223,2.7,4.9,55,0.00,,CLR,0.00,VWS V14.01,2013-03-20 05:45:00,
2013-03-19 23:50:00,16.3,3.4,30.16,SSW,207,3.1,4.9,56,0.00,,CLR,0.00,VWS V14.01,2013-03-20 05:50:00,
2013-03-19 23:55:00,16.3,3.4,30.16,SW,222,6.3,6.3,56,0.00,,CLR,0.00,VWS V14.01,2013-03-20 05:55:00,